Regional Weather Roundup
Issued by NWS Goodland, KS

Home | Current Version | Previous Version | Text Only | Print | Product List | Glossary On
Versions: 1 2 3 4 5 6 7 8 9 10 11 12 13 14 15 16 17 18 19 20 21 22 23 24 25 26 27 28 29 30 31 32 33 34 35 36 37 38 39 40 41 42 43 44 45 46 47 48 49 50
007
ASUS43 KGLD 291908
RWRGLD

GOODLAND FORECAST AREA HOURLY WEATHER ROUNDUP
NATIONAL WEATHER SERVICE GOODLAND KS
100 PM MDT FRI JUL 29 2016

...OFFICIAL OBSERVATIONS...

CITY           SKY/WX    TMP DP  RH WIND       PRES   REMARKS
GOODLAND KS    CLOUDY    70  63  78 CALM      30.16S
HILL CITY KS   MOSUNNY   81  63  54 SE8       30.08F
IMPERIAL NEB   PTSUNNY   76  60  57 MISG      30.13F
MCCOOK NEB     CLOUDY    79  61  53 N3        30.10F
AKRON CO       PTSUNNY   72  53  51 SE18      30.18F
BURLINGTON CO  MOSUNNY   75  61  61 E14       30.17F
LIMON CO       MOSUNNY   80  56  43 SE16      30.20F
$$

...UNOFFICIAL OBSERVATIONS...

CITY           SKY/WX    TMP DP  RH WIND       PRES   REMARKS
COLBY KS       MOSUNNY   79  66  65 SE6       30.15F
LENORA KS        N/A     82  32  16 MISG        N/A
NORTON KS      PTSUNNY   81  54  39 CALM      30.08F
SHARON SPRINGS   N/A     76  67  75 CALM        N/A
KIT CARSON CO    N/A     77  62  60 MISG        N/A
YUMA CO          N/A     72  61  68 S7G18       N/A
$$




USA.gov is the U.S. government's official web portal to all federal, state and local government web resources and services.